Theta_e
292 282 279 278 280 283 284 284 285 285 285 284 282 281 279 278 279 284 284 286 286 282 280 282 282 283 284 285 286 285 285 285 285 285 285 286 286 287 287 287 287 287 288 290 291 292 292 292 291 290 289 288 288 288 288 288 288 287 287 287 287 287 287 286 285 285 284 283 282 281 282 282 282 283 283 285 284 284 283 284 284 284 284 284 284 284
286 280 279 281 283 283 283 285 285 284 284 284 280 279 278 278 276 280 284 285 284 281 275 276 277 279 281 282 282 283 283 283 284 284 285 286 286 287 287 287 287 288 288 288 288 290 290 290 289 288 288 288 287 287 288 288 288 287 287 287 287 287 286 286 285 285 284 284 283 282 282 281 280 281 282 282 283 284 285 284 284 284 284 284 284 285
280 278 279 283 285 285 284 285 284 283 282 280 280 277 275 275 276 280 283 284 284 281 278 276 276 279 280 281 283 282 283 285 286 286 286 286 286 287 287 287 287 287 287 287 289 289 289 289 288 288 288 288 288 287 287 287 287 287 286 287 287 287 286 285 285 284 284 283 284 284 282 282 281 282 283 283 283 284 284 284 284 284 284 284 283 284
280 278 282 284 284 283 283 283 282 281 280 280 277 276 274 275 276 272 275 281 283 279 276 276 277 279 282 283 283 285 284 285 286 286 287 287 287 287 287 287 287 287 287 286 287 288 288 288 288 287 287 287 287 287 286 286 286 287 286 285 286 286 286 285 285 286 284 284 284 284 284 284 283 281 283 281 281 282 282 283 283 283 283 283 283 282
278 282 284 283 283 283 283 281 281 278 277 275 279 276 273 276 275 275 273 277 278 277 280 277 277 276 278 279 279 281 282 284 285 285 286 286 288 288 288 287 288 288 287 287 287 288 288 287 287 287 287 287 287 286 286 286 287 288 286 285 285 286 286 285 286 286 284 284 283 283 281 282 281 281 280 280 281 280 281 281 281 283 283 283 283 282
280 282 283 283 282 282 281 279 278 278 271 270 277 278 277 276 276 275 275 277 274 271 277 278 270 269 271 273 276 281 279 280 281 282 284 286 286 286 285 287 287 288 288 288 287 287 287 288 287 287 287 286 286 287 287 287 287 287 287 286 284 285 285 285 285 285 284 284 283 282 282 281 281 281 280 281 281 281 280 281 280 281 282 283 282 282
280 282 281 282 281 280 280 277 279 278 273 272 274 278 276 276 277 276 275 276 267 268 275 280 271 268 274 278 280 280 279 280 279 281 283 284 285 285 286 287 287 287 287 287 288 288 287 287 287 287 286 286 286 287 287 287 286 286 286 286 285 284 284 285 285 285 285 283 282 282 283 282 282 281 281 279 279 280 281 281 280 281 281 282 282 281
280 280 280 280 280 279 277 277 277 277 272 272 277 277 277 277 276 276 277 276 272 275 277 279 275 268 269 277 279 278 277 278 278 281 282 283 284 285 287 287 287 287 288 287 287 287 287 287 287 286 287 287 287 287 286 286 286 285 285 285 285 285 285 284 285 284 285 283 282 281 281 281 280 280 280 280 280 279 279 279 280 279 280 280 281 281
280 278 278 278 278 277 275 274 279 277 274 274 278 277 277 276 275 277 277 275 274 274 272 276 278 272 268 276 276 277 278 277 279 281 282 283 284 285 286 287 287 287 288 288 288 287 287 287 287 287 287 287 287 286 286 286 286 286 285 285 285 285 285 284 284 284 284 284 282 282 281 280 281 280 280 281 283 281 282 280 279 279 279 280 280 280
280 280 278 278 276 275 277 278 278 278 277 278 279 279 278 278 278 278 275 275 272 271 268 272 276 269 270 275 274 274 277 277 278 281 283 284 285 285 286 286 287 286 287 288 289 288 288 288 288 288 288 287 287 286 286 286 285 285 285 285 285 284 284 284 283 283 282 282 282 281 280 280 280 281 281 280 280 280 279 280 279 279 279 280 280 279
280 286 285 281 277 277 277 278 280 278 279 281 279 278 276 276 275 276 275 274 269 265 270 274 276 274 269 273 276 275 277 279 279 279 279 282 283 284 285 286 286 287 287 287 288 288 288 289 288 287 287 287 286 285 285 284 284 285 285 285 284 284 283 283 283 282 282 282 282 281 280 280 280 280 280 279 279 278 278 279 278 278 279 279 280 279
280 280 279 279 284 281 277 279 280 279 279 278 275 273 273 272 273 272 270 271 264 263 268 272 275 275 265 271 274 276 276 274 280 278 280 281 283 284 285 286 286 287 287 286 286 287 287 285 285 286 286 286 285 284 284 284 284 284 284 284 283 282 282 282 282 282 281 281 281 281 280 280 280 280 280 279 279 278 278 278 278 277 277 277 278 277
276 277 277 281 284 281 278 276 275 276 277 275 273 272 268 263 265 263 266 264 263 265 269 272 273 271 272 277 281 278 277 277 276 280 281 281 281 283 284 285 286 286 286 286 286 285 285 285 285 285 285 284 283 284 284 284 283 283 283 283 283 282 282 282 282 282 281 281 281 281 280 280 280 279 279 278 278 277 277 276 277 276 276 276 277 276
274 278 279 280 280 281 276 273 272 274 276 274 273 269 266 264 262 259 259 262 264 270 273 272 274 270 273 276 280 280 283 283 283 281 282 282 282 282 283 284 284 285 285 286 286 286 285 285 284 285 285 284 284 283 284 283 283 283 283 283 283 282 281 281 281 281 281 281 280 280 280 279 279 278 278 277 278 276 276 276 275 276 275 275 275 275
268 271 275 279 276 279 278 275 272 274 274 275 273 273 267 263 261 261 261 263 265 264 271 273 268 266 266 277 273 278 281 280 280 280 281 281 282 282 281 281 282 282 283 285 286 286 286 284 284 284 284 284 283 283 282 282 282 282 282 282 282 281 281 281 281 281 280 280 279 278 278 277 277 276 276 274 276 274 274 273 274 273 274 274 274 274
275 274 276 280 280 280 278 280 278 276 274 274 276 273 270 270 269 265 263 263 261 265 264 265 268 270 275 276 280 280 278 280 280 278 278 280 280 279 281 282 283 283 283 282 283 284 283 283 282 282 282 282 282 282 282 282 282 282 282 281 281 281 280 280 280 279 279 277 276 275 275 274 275 275 274 275 275 272 273 273 273 273 272 273 273 273
275 271 279 280 281 277 277 280 280 278 269 273 275 270 272 273 274 267 268 271 268 264 267 266 271 273 275 282 283 282 280 279 278 279 278 280 280 280 280 281 279 279 278 279 281 282 281 280 281 282 282 282 282 281 282 282 282 282 281 281 280 279 279 279 278 277 276 275 275 274 274 273 274 274 273 273 272 273 273 273 273 272 272 272 273 274
269 272 277 277 277 279 279 279 280 279 277 273 269 271 275 277 276 270 264 261 264 263 266 270 270 270 272 272 275 279 278 275 277 277 277 276 277 279 281 279 280 280 279 278 279 280 280 280 281 281 281 281 282 282 281 282 281 281 281 280 279 278 277 277 276 275 275 274 274 273 273 273 273 273 272 272 272 272 273 272 272 272 273 272 274 274
275 271 273 278 278 279 280 280 279 278 279 276 271 277 274 267 267 269 264 262 259 260 262 266 270 269 273 276 277 278 278 278 274 274 274 277 276 278 280 280 278 276 277 279 280 280 280 281 281 281 281 281 281 281 281 281 280 279 279 278 278 277 277 276 275 274 274 274 274 273 273 272 272 272 272 272 272 272 272 272 272 272 272 272 272 272
277 270 272 277 277 279 277 277 271 274 279 279 278 275 276 273 265 265 268 264 264 264 260 265 265 268 275 276 279 280 277 276 278 272 275 277 278 279 279 280 279 278 280 280 281 281 281 281 281 281 281 280 280 280 279 279 278 278 277 277 276 275 275 274 274 273 273 273 273 272 272 272 272 272 272 272 272 272 272 271 272 271 271 271 271 270
274 272 267 273 277 276 273 276 274 276 272 273 271 269 272 272 274 271 268 268 267 261 261 263 266 269 275 279 280 280 277 277 277 278 278 278 278 278 279 280 279 279 280 281 281 281 281 281 280 280 280 280 279 278 278 278 277 277 276 276 275 274 274 273 273 273 273 273 272 272 271 271 271 272 272 272 272 271 271 271 271 271 271 270 269 269
273 273 269 271 273 272 276 278 278 277 279 276 275 272 275 271 269 266 268 269 266 267 264 263 268 274 276 280 282 281 280 277 277 279 278 277 278 278 279 279 279 279 280 281 281 281 281 280 280 279 279 278 278 278 277 277 276 275 275 275 274 274 274 273 273 273 272 272 272 272 271 271 271 272 271 271 271 271 271 271 270 270 269 268 267 268
276 272 272 270 274 276 277 277 278 278 279 277 276 276 276 273 271 268 266 269 267 270 266 268 268 273 278 278 278 278 279 281 281 278 277 276 276 277 279 280 280 280 281 281 281 280 280 280 280 280 279 278 278 277 276 275 276 275 275 274 274 274 273 273 273 273 272 272 272 271 271 271 271 271 271 271 271 271 271 270 270 270 268 268 267 267
285 273 268 273 275 276 276 276 276 277 279 277 277 275 274 273 275 275 275 268 267 265 267 268 266 273 276 276 275 278 276 276 274 275 277 276 276 277 277 278 279 280 280 280 279 280 280 279 279 279 278 278 277 277 276 276 275 275 274 274 274 273 273 273 273 272 272 272 272 271 271 271 271 271 271 270 270 271 270 269 269 268 268 268 267 268
274 273 271 266 269 273 273 274 275 276 276 274 272 275 277 276 275 272 271 270 270 273 272 268 268 274 276 270 274 275 277 277 277 277 276 277 278 278 278 278 278 279 279 279 279 279 278 279 279 279 279 278 277 277 276 275 275 274 274 274 273 273 273 273 273 272 272 272 271 271 271 271 270 270 271 270 270 270 269 269 268 268 268 268 266 268
275 274 271 267 268 267 269 270 272 270 272 273 273 273 276 275 273 272 272 272 269 273 272 270 271 277 280 273 275 275 275 276 275 276 278 278 277 278 279 279 279 278 280 279 279 278 279 280 280 279 279 278 277 276 276 275 275 274 274 273 273 273 272 272 272 272 272 271 271 270 270 270 270 270 270 270 269 269 268 268 268 268 268 268 268 268
274 274 275 276 274 273 276 278 279 277 273 270 270 271 271 273 275 277 275 270 271 273 271 275 275 276 278 280 277 278 277 277 277 278 279 279 279 278 277 278 278 278 279 279 279 279 279 278 279 279 279 278 277 276 276 275 274 274 274 273 273 273 273 272 272 272 271 271 271 270 270 270 270 270 270 269 268 268 267 267 267 267 268 268 268 268
274 272 276 275 276 277 279 278 279 278 275 276 273 272 269 270 271 273 274 273 276 268 271 277 278 275 277 278 276 276 277 277 278 279 280 280 279 279 279 278 281 278 278 278 278 278 279 280 279 279 279 278 277 276 275 275 275 274 274 273 273 273 273 272 272 271 271 271 270 269 270 270 270 270 269 268 268 267 266 266 267 267 267 267 267 267
272 271 274 274 275 277 278 278 277 276 277 276 275 275 274 273 272 272 274 277 277 273 272 277 278 276 278 278 278 279 279 279 279 279 279 278 279 280 280 280 280 280 279 278 279 279 279 279 279 279 279 278 277 276 275 275 274 274 274 273 273 273 272 272 271 271 270 270 269 269 270 269 269 269 267 266 266 266 266 266 266 265 265 265 266 266
273 274 274 273 274 276 276 277 276 276 276 276 275 276 276 276 275 275 275 277 277 275 277 277 277 277 279 276 277 279 280 279 279 280 280 280 280 280 280 280 280 280 280 280 279 279 280 280 280 279 279 277 277 276 275 275 274 274 273 273 273 273 272 272 271 270 270 270 270 270 269 268 268 267 266 265 265 265 265 265 265 264 263 264 264 263
276 271 276 272 270 273 277 276 273 275 274 273 275 275 275 276 276 276 276 276 277 276 277 277 276 276 278 278 278 279 280 280 280 279 279 280 280 280 280 280 281 280 280 280 281 281 280 280 279 277 277 277 277 276 275 275 275 274 273 273 272 272 272 271 270 270 270 270 270 269 268 267 266 266 265 265 265 265 264 265 264 264 264 263 263 263
274 270 270 272 270 272 276 274 274 274 273 272 273 274 275 274 272 274 272 274 272 272 274 273 271 271 276 278 278 279 279 278 278 278 279 280 280 280 279 279 279 279 280 280 281 281 280 279 278 277 276 277 277 276 276 275 274 273 273 273 272 272 272 271 270 270 270 270 269 269 268 267 266 265 265 265 265 264 264 264 264 263 263 263 263 262
273 269 269 268 269 271 275 274 274 275 274 272 268 271 274 274 274 274 275 275 275 274 271 268 269 275 276 277 276 277 278 278 278 278 279 279 280 279 278 279 279 279 280 280 281 281 281 281 279 279 278 278 277 277 276 276 274 273 273 272 272 272 271 271 270 270 269 269 268 268 267 266 266 265 265 265 264 264 264 264 264 263 262 262 262 261
270 271 269 271 269 271 275 274 274 272 266 267 274 276 275 274 274 272 272 273 274 275 272 275 274 275 275 276 275 276 276 277 278 279 281 279 278 278 278 278 279 279 280 281 281 281 281 281 281 280 280 280 279 279 278 276 275 274 274 273 272 271 271 271 270 270 269 269 268 267 267 266 266 265 265 265 265 264 264 263 263 263 263 262 261 262
273 273 272 272 269 270 272 273 269 265 267 275 276 277 277 276 276 274 273 274 274 274 274 273 274 274 275 276 276 277 278 278 279 279 280 280 280 278 278 278 278 279 279 280 280 280 281 281 281 281 280 279 279 277 276 274 274 273 272 272 271 271 271 271 270 269 269 268 268 267 266 266 265 265 265 265 265 264 264 263 263 263 262 262 262 262
274 273 271 270 270 269 270 269 264 267 275 275 276 277 277 278 277 275 273 273 274 274 274 272 274 274 275 276 277 278 278 278 279 280 280 280 280 279 278 278 278 279 279 280 280 280 280 281 280 281 281 280 276 275 275 274 274 273 272 272 271 271 271 270 270 269 268 268 267 266 266 266 265 265 265 265 264 264 264 263 263 262 262 262 262 261
274 270 271 267 271 266 267 266 270 275 275 273 270 273 274 272 272 272 267 272 273 275 274 273 274 274 275 276 277 277 278 278 277 278 280 280 279 280 279 279 279 280 280 280 280 280 281 281 280 279 279 276 275 275 275 274 273 273 271 271 271 270 270 269 269 268 268 267 267 266 266 266 265 265 265 265 264 263 263 263 262 262 262 261 262 262
275 272 272 270 269 271 268 267 269 268 266 265 272 275 277 277 277 276 274 271 275 275 276 274 273 274 274 275 275 276 277 274 271 274 278 279 279 279 279 280 280 280 280 280 280 280 280 280 279 278 276 275 274 273 273 273 273 272 271 270 270 269 269 268 268 268 267 267 266 266 266 266 265 265 264 264 264 263 263 263 263 262 262 262 261 261
273 274 271 269 268 269 269 268 267 266 266 269 270 274 276 277 277 277 272 269 274 275 275 275 273 274 274 274 274 275 272 269 269 273 277 278 278 279 278 279 280 280 280 280 279 278 279 280 279 276 275 274 274 274 273 273 272 271 270 270 269 269 268 268 268 267 267 267 267 266 266 265 265 265 264 264 264 263 263 262 262 262 262 262 261 261
269 268 268 269 269 270 269 267 266 269 263 269 272 274 276 278 277 275 265 265 272 274 274 274 273 274 274 274 275 273 271 267 269 273 277 278 278 279 279 279 279 279 280 279 279 279 279 279 278 277 276 275 275 273 272 272 271 271 270 269 269 268 267 268 268 268 267 267 266 266 265 265 265 264 264 263 263 262 262 262 261 261 261 261 260 260
267 268 270 267 269 270 270 269 271 271 272 273 273 274 277 278 276 265 259 266 274 274 274 274 274 275 275 273 274 270 273 274 274 276 278 278 278 278 278 279 279 280 279 278 278 279 278 279 278 277 276 276 273 271 271 271 270 270 269 268 267 267 268 268 267 267 266 265 265 265 265 265 264 264 263 263 262 262 261 261 261 261 260 260 259 259
270 270 272 271 270 268 269 268 269 270 271 273 274 275 277 273 264 261 270 275 274 273 274 275 275 275 275 274 273 273 274 275 276 277 277 277 276 277 277 278 278 279 279 279 279 278 278 278 278 277 276 274 272 271 270 270 270 269 268 267 267 267 268 267 266 266 265 265 265 265 264 264 264 264 263 262 261 260 260 260 260 260 259 259 258 258
268 267 267 266 270 268 268 264 265 262 271 275 273 272 275 267 269 273 274 274 275 274 274 275 275 275 275 274 274 274 274 274 274 275 276 275 275 275 276 277 277 277 277 276 276 277 277 277 277 277 276 273 270 270 270 270 269 269 268 267 267 267 267 266 266 265 265 265 264 264 264 263 263 262 261 260 261 260 260 259 259 258 258 258 257 257
272 266 266 268 271 261 263 262 263 270 274 276 273 267 271 274 276 275 274 272 274 274 274 274 274 275 275 275 274 274 274 274 274 274 274 275 275 275 276 276 276 276 276 277 277 277 277 276 276 276 275 271 270 270 270 269 269 268 267 267 267 266 266 266 265 265 264 264 264 263 263 262 262 261 261 260 260 260 259 258 258 258 257 257 256 256
273 268 270 266 272 267 264 267 273 275 276 275 275 274 275 277 276 275 274 273 273 273 275 274 274 275 275 275 274 274 273 273 273 273 273 273 274 275 275 275 275 276 276 276 275 276 276 275 275 275 273 270 269 269 269 269 268 268 266 267 266 266 265 265 265 264 263 263 263 262 262 261 261 260 260 260 259 258 258 257 257 256 256 256 256 255
276 274 274 273 269 272 273 274 276 275 274 274 275 276 276 276 276 275 274 273 274 274 275 273 274 274 275 275 274 273 273 272 272 272 273 273 274 275 275 275 276 276 275 275 274 274 274 274 274 272 271 269 268 268 268 268 268 267 267 266 266 266 265 264 264 263 263 262 262 262 261 260 260 260 259 259 259 258 258 257 257 257 256 256 255 255
274 274 272 268 270 267 264 272 271 271 272 273 274 276 276 275 274 274 274 273 273 273 273 274 274 274 274 275 274 272 272 272 272 272 273 273 273 273 274 274 274 274 273 273 273 273 272 272 272 271 269 268 267 267 267 267 267 267 266 265 265 265 264 264 263 262 262 262 261 261 260 260 259 259 258 258 258 258 258 257 257 256 256 255 255 255
268 275 270 269 268 266 266 270 272 273 273 274 275 273 272 272 273 274 274 273 272 273 273 273 273 273 274 273 273 272 272 272 271 271 272 272 272 273 273 272 273 272 272 272 271 271 270 270 270 269 269 268 267 266 267 266 266 266 265 265 265 264 263 263 262 262 261 261 261 260 260 259 258 258 258 258 258 257 257 257 257 256 256 256 256 255
272 274 265 269 266 269 271 272 272 273 273 274 275 274 272 272 272 273 273 271 271 271 271 272 272 272 272 272 273 272 271 271 272 272 271 271 272 272 271 272 272 271 271 270 269 269 269 269 268 269 268 268 267 266 266 266 265 265 265 264 264 264 263 262 261 261 261 260 260 259 259 259 258 258 258 258 258 258 258 257 257 257 257 258 258 257
270 265 270 269 265 265 266 268 271 266 266 271 273 272 272 273 273 272 271 270 270 270 270 270 270 271 271 272 272 272 271 271 272 272 270 271 272 271 272 271 271 270 269 269 268 268 268 268 267 267 267 267 266 266 265 265 265 264 265 264 263 263 262 261 260 260 260 260 259 259 259 258 258 258 258 258 257 257 257 259 260 259 257 257 260 260
268 269 270 266 266 265 270 271 272 271 272 273 272 272 272 273 272 271 269 269 270 271 271 270 269 269 269 270 273 272 271 271 271 271 270 271 271 272 271 270 269 269 269 268 267 267 266 266 266 266 266 266 265 265 265 265 264 264 264 263 263 263 262 261 260 259 259 259 259 259 258 258 258 258 258 258 258 257 257 257 259 264 265 263 261 261
Wind_Speed
1 1 2 4 5 3 1 1 2 2 2 2 1 1 5 4 6 2 1 2 0 1 8 10 9 12 15 12 10 9 9 12 12 11 11 10 11 13 13 14 15 15 17 13 13 13 14 14 12 11 9 9 9 9 11 11 11 12 12 11 11 9 8 8 8 7 8 7 5 4 7 7 6 6 5 6 5 5 6 5 6 6 7 6 6 6
3 1 4 6 5 3 2 1 0 1 1 1 0 1 7 1 4 3 4 2 1 1 5 1 4 13 15 13 10 6 6 15 15 14 14 14 12 13 16 16 16 16 8 6 8 11 12 11 11 10 10 9 12 11 12 14 14 12 12 13 12 9 9 9 9 9 7 7 7 7 7 5 6 6 7 6 6 7 6 6 6 6 6 7 7 7
1 4 3 4 1 1 2 2 1 0 1 2 1 3 3 7 4 3 1 0 1 1 10 3 4 14 15 13 14 8 11 13 15 18 19 17 15 14 14 15 14 10 10 11 13 13 14 14 14 13 12 12 15 14 14 12 12 12 12 12 11 10 10 9 9 9 9 6 6 6 5 7 4 4 6 7 7 7 8 7 6 7 7 7 6 6
2 4 4 1 1 1 2 1 2 3 2 2 4 1 6 4 1 5 2 1 1 2 5 5 7 14 16 13 15 14 12 15 13 15 17 14 17 17 16 15 15 15 14 14 14 15 15 15 15 13 13 14 12 12 11 12 13 12 11 11 12 12 10 10 9 9 8 8 6 6 6 6 7 4 3 3 2 5 5 6 6 6 7 7 7 6
5 1 0 1 0 0 0 1 1 2 5 3 4 3 4 2 2 3 5 4 5 5 3 5 6 10 9 9 7 8 4 12 11 8 11 12 14 14 11 10 14 17 16 14 13 13 14 15 16 17 15 13 14 14 14 14 14 12 14 13 13 12 12 10 10 10 8 8 6 5 3 4 4 2 2 3 3 4 4 4 5 7 6 7 7 6
3 2 1 1 1 1 1 3 2 3 2 4 2 3 2 0 1 3 4 7 7 5 1 1 8 6 5 6 9 13 5 5 6 8 13 16 15 10 11 15 12 12 13 16 16 17 17 18 15 13 14 15 15 15 14 14 14 13 12 11 11 10 11 11 11 11 10 9 10 9 9 8 7 7 6 9 9 7 6 7 4 5 6 7 6 7
1 0 1 1 0 0 0 1 2 3 2 1 3 3 2 1 0 1 4 4 4 3 2 1 1 10 7 14 11 10 7 12 4 7 14 12 12 12 14 14 13 13 11 10 12 13 14 15 15 15 16 17 16 16 13 12 13 13 12 13 12 11 11 11 11 12 10 9 10 12 12 10 11 10 7 3 4 6 5 5 6 7 5 6 7 6
1 0 1 0 1 1 0 2 4 6 3 3 1 2 0 1 2 3 0 2 6 3 7 4 6 4 8 14 7 6 6 10 8 9 10 10 10 13 14 13 12 13 12 13 14 14 15 16 18 19 18 16 17 14 12 13 12 14 14 13 13 10 10 10 11 12 12 12 10 10 8 8 8 9 8 6 5 4 3 5 4 4 5 6 6 7
2 3 2 4 1 1 6 5 2 5 4 2 1 4 2 3 4 1 0 2 3 3 10 1 1 1 5 11 5 6 8 7 10 11 11 12 11 12 13 13 12 12 13 13 13 15 17 17 17 16 16 16 13 12 14 14 14 13 12 13 12 12 11 9 12 13 12 11 11 10 9 8 6 6 6 5 5 6 5 5 4 4 4 5 5 7
2 3 6 7 4 7 4 1 2 6 2 2 1 0 1 1 1 1 1 0 3 1 8 3 4 2 9 9 8 2 3 9 10 13 13 12 12 12 12 11 10 8 8 11 15 16 16 17 17 16 15 13 14 12 11 11 11 12 11 13 13 13 11 10 11 12 11 10 10 10 9 9 7 7 6 6 7 6 5 5 5 5 6 6 6 5
1 2 4 3 5 4 3 1 0 1 0 1 1 2 3 1 1 1 1 1 2 1 10 4 7 4 5 8 9 3 7 9 8 5 6 7 7 9 10 11 10 10 10 11 13 13 15 15 15 13 15 15 12 10 11 10 12 12 13 13 14 14 10 11 12 12 12 10 10 10 10 10 10 8 8 7 6 6 5 6 5 5 5 4 6 6
0 0 0 3 1 3 4 2 3 1 1 1 1 2 5 3 2 2 1 2 1 7 8 3 7 5 5 10 8 9 5 3 7 7 9 9 11 12 12 12 11 11 10 10 9 10 10 8 10 11 14 14 13 10 12 11 11 12 13 13 14 11 12 10 11 11 11 10 9 9 10 10 9 9 8 9 8 7 7 6 6 5 5 4 5 4
3 6 2 1 2 8 1 1 2 3 2 3 3 2 2 5 4 2 2 1 5 7 3 0 4 1 10 15 15 10 9 7 6 9 10 10 10 10 10 11 11 10 8 9 10 9 9 12 13 14 14 11 13 16 16 14 13 12 12 14 16 13 12 12 11 12 11 10 10 10 10 9 8 9 8 8 8 6 7 6 6 5 6 4 4 3
6 0 0 3 1 4 6 5 2 0 0 3 2 2 2 1 1 3 6 2 5 5 3 2 2 4 5 10 15 20 19 15 13 12 11 10 12 12 11 10 9 9 10 12 11 10 11 11 12 14 15 15 14 13 14 13 13 12 12 13 15 14 11 10 11 11 11 10 9 8 9 9 8 8 8 7 8 6 6 6 6 6 5 6 4 3
4 5 3 5 2 3 7 5 5 2 6 8 2 6 7 6 2 3 3 5 6 5 2 3 2 8 2 9 2 9 12 9 8 9 9 11 11 10 7 5 6 6 7 8 9 11 12 12 12 13 14 13 13 13 13 12 12 11 11 12 13 12 11 12 12 10 11 9 9 8 8 8 7 8 7 6 7 6 6 5 6 5 5 5 3 2
6 8 3 0 1 4 6 2 2 3 1 4 2 4 3 7 6 5 6 2 3 3 5 2 6 6 8 4 9 7 8 10 7 6 4 8 6 4 4 6 7 8 7 6 8 8 8 8 8 8 10 11 11 13 11 12 12 12 12 11 11 13 12 12 12 11 11 9 8 8 9 8 8 7 7 6 5 5 6 6 6 5 4 3 1 0
3 5 0 2 1 3 3 0 2 1 1 1 4 4 5 2 4 2 4 3 0 1 11 3 7 9 8 14 14 13 9 9 3 2 3 7 3 1 5 6 5 5 5 5 7 7 7 5 6 8 10 10 9 11 14 14 13 14 12 12 12 10 9 10 10 10 10 10 10 9 8 8 8 8 8 8 7 6 5 6 5 4 2 2 2 4
3 8 2 4 4 1 2 1 1 2 2 4 3 6 2 2 1 3 4 3 1 5 8 7 10 7 2 12 2 1 1 4 1 3 4 4 2 4 6 6 7 6 4 2 3 3 4 5 6 6 6 8 11 12 11 11 9 9 10 12 13 12 13 10 10 11 10 11 10 9 9 8 8 8 7 7 7 6 6 4 5 4 5 4 3 4
4 5 4 0 1 3 2 0 5 4 2 6 3 1 0 3 1 2 3 4 3 5 7 5 9 7 9 11 4 8 7 7 5 5 4 6 6 7 7 8 6 3 2 5 6 6 7 8 9 9 8 6 6 6 7 7 8 8 8 9 11 13 12 11 9 8 7 8 8 8 8 9 8 7 7 6 6 6 6 6 5 5 5 5 5 6
1 3 6 0 0 0 0 3 5 3 2 2 1 3 1 2 4 3 7 4 4 8 2 8 5 9 10 7 10 15 7 6 8 5 7 10 9 8 8 8 7 6 6 7 7 8 8 8 7 8 8 9 9 8 7 8 7 9 9 10 9 8 8 9 10 9 10 9 8 8 7 7 7 7 7 7 7 6 7 6 6 6 6 6 5 4
2 3 6 2 3 0 3 6 9 10 6 1 1 3 1 2 3 3 1 5 5 4 4 8 10 8 8 9 12 14 7 7 6 8 7 8 8 8 8 8 7 7 7 8 8 9 8 8 7 6 6 5 5 5 6 8 11 10 9 11 11 14 12 12 11 10 9 9 9 10 10 9 8 8 7 7 7 7 6 6 6 6 6 5 4 4
1 1 7 3 2 4 12 5 10 9 11 10 12 10 13 8 4 1 12 1 3 4 8 3 18 11 6 6 10 10 8 5 7 8 7 6 7 8 8 8 9 7 8 8 8 7 7 7 6 5 5 5 6 8 9 8 8 9 11 11 11 11 11 12 11 11 10 9 9 10 10 9 8 8 7 7 7 7 7 7 6 6 5 5 4 5
3 1 0 8 11 13 11 6 3 5 3 5 9 10 10 6 5 4 6 9 0 7 1 6 9 18 6 6 5 3 5 6 6 2 4 5 6 7 8 8 7 7 8 8 8 7 8 8 7 8 9 10 11 10 10 9 11 11 11 11 11 12 12 11 10 9 9 9 10 10 9 9 9 8 8 8 7 8 7 7 7 6 6 6 5 4
4 1 2 10 9 10 5 0 1 0 1 3 6 3 5 10 15 14 11 5 4 2 3 6 7 14 0 2 4 5 3 2 1 2 4 5 5 4 5 6 6 6 7 5 4 5 5 5 6 7 9 10 11 11 12 11 9 9 10 11 10 12 12 10 10 9 9 9 10 10 10 10 9 9 9 9 7 9 7 7 6 5 6 6 5 5
2 4 5 5 8 9 5 1 1 1 1 5 4 7 11 4 3 3 2 1 2 13 11 3 16 15 1 2 4 5 4 3 4 5 3 5 7 7 7 7 5 5 5 4 5 4 4 6 9 12 12 11 11 10 10 11 11 10 10 9 11 10 10 10 9 10 9 10 11 10 10 10 9 9 10 9 7 8 8 8 7 5 6 5 4 4
3 5 5 4 9 12 13 12 11 5 8 4 3 4 7 13 10 3 7 6 8 10 5 6 14 16 10 1 4 6 6 6 6 5 6 4 5 7 7 7 7 5 6 5 4 5 10 12 10 8 9 10 11 11 11 10 10 9 9 10 8 9 10 10 9 10 10 10 11 10 10 9 9 10 11 10 8 8 8 8 7 7 5 6 5 4
2 2 5 10 11 15 17 14 0 5 2 2 6 3 6 6 9 9 4 2 14 10 6 15 18 15 18 19 5 7 7 5 7 7 8 8 8 8 6 7 6 6 6 6 7 7 3 4 10 13 11 11 10 10 10 11 11 10 10 10 9 9 10 10 10 10 10 10 11 9 11 10 11 10 10 9 8 8 8 8 7 7 7 6 6 5
2 4 13 10 16 21 22 18 11 5 8 11 10 8 3 3 6 8 12 19 10 7 15 15 20 14 16 13 6 8 7 6 8 9 11 10 8 8 9 8 10 8 6 4 4 6 10 12 10 10 11 11 11 10 10 10 11 11 12 12 10 9 9 9 10 10 10 10 10 10 11 10 9 9 8 7 8 8 8 7 7 7 6 5 6 6
4 5 7 9 19 23 22 21 13 12 12 13 14 15 13 8 7 13 20 23 13 11 18 21 19 17 16 9 14 15 14 11 11 12 9 6 8 12 12 12 12 11 10 7 8 8 9 10 11 12 12 12 10 11 12 11 11 10 10 10 11 10 11 10 10 10 10 9 10 10 10 8 7 7 7 8 8 8 8 8 7 6 5 5 5 5
2 9 10 7 12 15 21 15 7 12 13 15 16 17 15 13 16 17 20 19 20 18 19 19 19 19 13 14 13 12 11 11 9 8 9 13 13 12 12 11 11 12 12 12 9 9 9 11 11 10 8 8 11 12 11 12 12 13 13 12 12 12 11 10 11 10 10 10 10 8 8 8 7 8 8 8 9 9 8 7 7 6 5 5 5 5
6 8 5 1 2 10 18 5 5 10 8 11 14 11 9 15 18 18 15 16 16 16 17 17 15 13 8 13 12 13 13 14 15 17 15 13 14 13 13 13 14 14 14 14 15 14 9 8 6 3 4 8 10 13 14 14 13 12 12 12 13 13 11 11 11 10 10 9 8 8 8 8 8 8 9 9 8 7 8 8 6 6 5 5 6 5
4 7 3 0 6 13 15 4 3 6 4 8 14 12 12 11 10 9 4 5 3 9 10 7 6 8 13 16 14 13 16 17 15 15 16 15 14 14 15 16 17 17 18 17 17 16 15 9 5 5 7 10 12 13 13 13 13 12 14 13 13 12 11 11 11 11 10 9 8 9 10 8 8 9 9 9 9 8 7 6 6 6 6 6 6 5
4 2 1 1 4 12 15 6 11 13 15 15 5 10 9 8 6 5 10 15 15 7 11 8 5 10 13 14 16 18 17 16 16 17 17 18 12 13 15 17 18 19 19 18 17 16 16 15 9 8 9 9 11 12 15 15 11 14 15 14 13 11 12 12 12 11 10 9 9 10 9 9 10 10 9 9 8 7 7 7 7 7 6 7 6 5
2 3 3 2 5 11 14 8 8 11 12 5 4 6 11 7 13 9 8 12 13 14 5 5 6 11 14 16 18 17 18 17 15 15 16 8 10 14 16 17 17 19 20 19 17 16 15 15 13 9 9 11 12 14 13 11 14 12 10 11 11 13 12 12 11 11 11 10 10 10 9 10 10 10 9 9 8 7 7 7 8 7 6 5 5 6
4 4 5 0 3 8 6 11 10 8 8 5 5 15 17 10 12 7 9 11 13 16 17 17 19 20 17 13 13 13 15 16 15 15 12 4 11 18 22 24 24 23 22 19 19 19 19 20 19 16 11 9 10 8 7 9 9 8 10 11 13 12 12 11 11 11 11 11 10 9 10 10 10 10 9 9 8 8 8 8 7 7 7 7 7 7
6 3 0 2 1 3 4 2 4 2 5 10 9 15 19 8 9 8 2 13 16 15 16 16 16 16 15 16 14 13 15 19 16 10 2 14 17 15 17 18 20 21 20 19 20 21 21 22 21 18 15 8 3 5 8 10 9 11 11 10 12 11 12 12 11 11 10 11 11 11 10 11 10 10 9 9 8 8 8 8 8 8 6 6 5 5
1 1 1 3 2 6 2 5 11 7 11 16 17 17 16 12 16 13 8 2 13 14 15 15 16 19 18 17 15 16 17 16 12 6 4 11 14 15 13 15 17 17 17 20 20 20 22 21 20 16 10 6 4 5 8 7 9 9 9 11 11 11 11 11 12 11 12 11 11 11 10 10 11 10 10 9 9 9 9 9 8 7 6 7 7 7
3 4 3 1 4 1 5 7 6 6 5 9 13 13 14 14 14 15 8 5 13 18 15 17 18 18 20 18 19 19 16 14 13 14 14 16 18 19 17 16 13 12 15 16 17 21 22 21 19 15 8 7 5 4 3 5 8 9 10 11 10 11 11 12 12 11 11 11 10 10 10 10 10 10 10 9 10 9 8 7 6 7 7 8 8 8
6 4 2 1 5 5 7 8 6 7 4 9 12 16 15 16 16 13 5 5 8 18 18 17 19 19 17 17 20 18 16 14 15 14 14 22 24 20 20 18 16 17 15 13 16 19 22 22 20 15 9 5 6 6 5 7 9 9 10 10 10 10 11 12 11 11 11 10 9 9 9 9 9 9 9 9 9 9 9 8 8 7 6 7 6 7
7 4 5 5 5 5 6 5 6 4 2 10 12 16 18 19 20 6 5 7 17 19 20 20 21 19 18 19 17 14 12 11 14 19 22 24 21 21 16 18 21 19 16 16 14 14 18 20 19 17 13 11 10 3 5 6 8 9 9 9 9 10 11 12 11 8 7 7 7 8 8 8 9 9 9 9 8 7 8 6 6 7 7 6 6 6
6 5 2 2 4 8 8 6 6 3 3 10 15 19 17 19 6 9 5 10 17 19 20 18 20 17 15 19 15 15 14 13 15 17 20 20 21 21 21 18 15 15 17 18 17 18 17 16 15 16 17 12 5 4 6 6 8 9 8 9 9 12 11 7 7 7 7 7 7 7 8 7 8 9 8 8 8 7 6 6 7 6 6 6 5 5
9 6 1 6 7 8 8 8 8 0 4 12 19 15 13 11 6 6 8 10 12 15 18 18 18 18 15 15 16 15 18 19 19 16 17 17 18 19 21 21 21 19 15 13 15 17 17 18 17 16 15 10 5 5 6 7 9 8 8 8 11 9 5 7 7 7 7 7 7 7 7 8 7 7 7 6 7 7 7 5 6 6 6 5 6 7
6 4 8 7 5 5 8 8 8 5 8 20 22 17 11 6 5 5 9 12 14 14 15 15 14 16 14 16 18 20 22 21 21 21 17 18 18 19 20 19 21 20 20 20 19 17 15 17 19 17 17 7 5 6 6 8 9 8 8 10 8 5 6 6 6 7 7 7 7 7 7 7 8 7 6 6 7 8 7 5 6 5 6 6 6 7
4 4 5 5 6 3 6 5 3 4 8 10 13 8 12 7 5 6 11 13 15 14 13 13 15 15 16 16 20 21 21 21 21 22 22 17 17 16 15 16 17 18 18 17 15 17 19 19 18 17 14 5 5 5 6 8 9 8 8 8 5 6 6 6 6 6 7 7 7 7 6 7 7 6 6 7 6 6 6 6 6 6 6 6 6 6
10 4 4 6 4 4 5 6 8 10 7 9 12 12 10 6 8 13 14 13 15 14 14 16 18 18 18 19 20 19 15 17 22 23 21 22 21 18 16 19 19 17 16 17 19 19 16 16 19 19 13 4 4 4 4 4 7 6 7 4 7 7 8 7 8 7 7 7 7 7 6 6 6 6 6 6 7 7 6 6 6 6 5 6 6 6
3 4 7 4 4 11 15 12 8 9 10 13 13 12 5 10 11 15 16 16 15 16 15 16 20 20 21 19 17 15 15 17 20 21 22 21 17 16 19 17 15 16 18 18 17 18 18 19 18 14 10 3 2 2 2 2 3 6 4 5 6 6 7 8 8 8 8 7 6 7 6 7 5 5 6 6 5 6 6 7 7 7 6 6 7 7
2 5 5 2 10 8 5 6 13 12 14 15 15 7 7 10 15 15 15 14 17 18 17 17 17 19 20 17 17 17 18 18 17 19 19 16 17 21 17 17 20 19 17 18 18 18 17 17 15 12 6 5 1 1 1 1 0 1 3 5 5 5 6 8 8 7 7 7 6 6 6 8 6 5 5 5 5 5 5 5 6 6 6 7 7 7
3 3 4 4 8 4 11 14 13 15 16 17 8 8 11 15 18 16 12 12 14 16 17 17 19 20 20 19 18 16 17 16 18 18 15 16 20 15 14 18 17 18 17 15 16 16 15 13 12 10 7 5 1 2 1 1 1 2 4 4 5 6 6 7 8 7 7 7 6 6 6 6 7 7 6 6 6 6 6 6 6 7 9 9 9 9
5 4 3 9 7 11 12 9 15 21 15 6 9 7 10 13 16 19 14 13 14 17 19 19 17 19 20 21 20 19 17 15 16 15 17 19 17 13 16 15 15 16 16 16 15 14 12 11 10 9 7 5 1 3 2 2 2 3 4 4 5 6 7 7 6 5 5 5 5 6 5 6 6 6 6 6 6 7 7 8 8 9 9 9 7 8
3 2 6 7 9 10 10 17 18 16 17 18 13 12 15 17 16 15 14 15 16 19 20 21 21 20 20 21 22 17 14 15 15 14 19 19 16 15 16 14 15 16 15 13 12 11 11 9 9 9 7 4 1 2 3 3 3 3 4 5 5 6 7 7 6 5 5 5 6 5 6 5 5 6 6 6 7 7 7 9 13 10 9 8 11 16
1 4 5 7 6 11 16 19 15 15 17 14 14 14 15 15 15 14 14 16 17 18 19 20 22 24 22 22 17 12 16 14 15 16 18 16 15 14 13 14 15 16 14 12 12 11 11 10 8 8 7 4 1 2 3 4 3 3 4 5 6 7 7 7 6 5 5 5 6 6 6 5 6 6 7 7 7 6 7 6 9 18 22 17 14 14
Wind_Direction
103 114 187 214 203 211 210 174 189 217 209 206 179 163 239 241 280 283 270 264 16 330 244 235 249 260 269 258 245 227 212 223 227 225 224 218 209 209 211 209 209 208 215 202 198 197 194 193 189 184 173 173 173 168 168 171 175 173 176 174 184 186 178 169 169 170 166 167 173 168 184 188 189 186 189 193 203 194 195 190 184 171 175 174 170 174
71 75 246 213 199 188 214 241 191 356 66 143 246 342 292 246 268 245 222 247 294 175 290 256 263 268 264 269 257 236 205 228 218 222 226 220 214 212 210 211 209 214 214 179 195 198 192 191 186 179 179 168 175 188 176 179 182 178 175 180 182 181 182 178 174 171 172 177 180 172 185 178 180 183 186 204 208 204 200 193 188 183 176 174 175 176
33 213 240 213 217 288 272 241 232 122 280 354 221 270 327 285 240 291 320 4 251 83 263 301 276 275 278 273 272 228 212 231 215 210 217 210 214 217 215 213 211 208 207 196 199 192 193 188 186 182 184 186 185 186 187 181 177 179 178 183 181 184 180 181 172 168 178 178 176 169 179 176 190 207 197 196 200 196 199 198 190 182 178 175 178 176
316 284 232 219 46 24 291 270 23 8 30 272 314 324 245 247 28 296 291 353 254 180 274 282 302 286 282 278 274 262 215 236 229 214 221 208 212 215 213 206 204 208 203 200 195 194 192 188 188 187 188 189 185 185 187 184 183 184 182 182 182 184 181 181 181 177 178 173 171 176 177 188 174 179 165 142 138 182 188 206 190 186 178 179 179 176
205 222 43 56 8 81 205 345 34 30 308 296 205 214 259 306 259 180 257 311 284 294 237 293 297 288 276 284 307 300 229 235 243 216 228 226 224 220 219 215 207 205 201 201 198 194 190 191 193 192 190 183 188 188 189 187 188 189 187 182 180 180 182 183 183 178 169 164 169 163 118 124 113 81 108 138 192 166 172 171 177 192 178 177 180 179
305 257 91 44 336 28 59 332 281 145 319 321 240 185 202 197 304 304 327 5 2 328 325 102 360 295 287 267 265 276 304 241 238 213 223 221 221 216 217 218 213 215 203 197 195 193 191 194 193 192 188 190 192 193 193 191 192 188 188 181 177 177 180 184 184 176 168 173 170 165 164 169 181 193 187 196 195 199 196 196 196 190 184 179 179 179
212 313 85 181 141 60 71 198 246 133 182 50 265 165 146 108 67 351 329 38 331 287 282 85 166 278 312 293 277 274 281 274 284 220 230 221 219 212 219 217 210 208 205 208 201 194 191 194 190 192 192 193 194 197 189 191 191 189 188 188 182 180 181 182 181 176 169 170 173 181 185 184 185 187 213 204 201 198 219 195 191 196 192 186 177 184
95 339 28 39 109 122 39 273 260 153 121 248 226 137 90 10 296 268 151 151 237 273 280 183 169 222 308 288 268 266 281 276 285 255 244 233 220 216 220 216 212 208 202 196 200 199 196 191 191 193 196 194 198 191 186 191 190 190 188 186 187 183 180 183 177 179 177 173 175 172 177 181 184 191 200 196 201 190 170 152 180 179 183 182 180 177
134 188 189 200 162 156 209 205 188 134 151 217 232 159 231 210 223 214 177 239 238 20 299 86 208 228 252 261 292 301 293 285 261 247 242 233 227 223 223 220 216 210 202 197 197 199 197 197 197 195 195 200 193 189 189 191 191 189 185 184 185 186 183 179 176 178 182 177 175 173 169 179 192 181 188 176 159 155 155 147 165 149 170 176 185 180
281 169 212 161 147 222 225 218 162 152 212 267 208 191 200 151 161 160 140 132 326 58 275 206 198 196 274 273 304 312 241 262 251 246 239 233 225 224 225 229 223 214 210 206 204 201 200 200 198 196 194 190 196 194 191 189 185 186 181 182 182 187 183 175 172 170 174 172 166 170 178 177 178 173 172 156 163 167 159 170 181 178 175 181 185 197
215 262 173 153 205 210 165 190 154 80 189 121 75 20 357 21 159 114 129 121 47 310 254 213 203 157 297 268 240 171 222 207 242 284 278 261 251 244 236 228 215 209 209 208 208 207 205 199 195 186 191 195 189 189 186 185 184 183 181 180 182 184 175 170 169 165 169 168 169 175 176 177 177 178 167 165 172 166 159 174 193 183 194 189 192 185
333 338 183 254 88 95 99 92 8 95 41 81 41 67 347 351 34 41 357 47 90 271 261 247 188 169 183 287 268 233 267 216 193 221 245 248 242 233 226 225 217 211 209 208 203 209 202 190 195 187 195 190 189 178 184 185 182 181 181 176 176 175 173 171 166 165 165 166 172 171 171 176 176 171 172 173 174 173 173 177 187 193 179 200 206 202
278 213 232 318 261 132 135 69 312 21 9 70 64 40 73 280 27 328 27 315 210 216 256 257 140 15 245 235 264 272 251 256 214 210 224 233 245 242 236 226 217 210 207 199 203 197 190 190 187 190 193 181 181 188 185 182 179 179 176 176 172 178 174 170 166 168 166 165 171 169 170 172 167 167 166 167 169 174 174 172 173 169 180 188 180 196
277 330 182 223 21 210 126 158 247 342 145 101 160 144 89 340 10 253 265 229 292 292 250 154 106 243 260 290 244 250 259 243 238 229 239 238 238 239 232 224 213 208 204 205 199 194 194 192 192 189 183 185 185 184 182 178 176 177 178 178 176 176 172 165 165 167 167 173 170 167 166 166 164 164 162 166 166 171 166 163 164 166 171 165 179 171
339 339 267 162 255 152 182 181 181 170 159 205 177 138 176 146 165 241 217 228 222 223 258 261 62 234 124 241 230 221 239 248 239 233 232 237 240 242 250 233 212 209 215 208 202 201 197 194 186 183 184 182 182 178 176 177 177 173 177 178 176 168 175 169 169 164 167 168 166 162 158 155 155 157 153 158 157 153 142 143 134 130 129 133 159 164
216 222 262 36 231 154 177 237 145 102 67 219 188 81 91 233 129 190 205 189 266 331 336 248 207 202 209 262 295 254 259 271 260 256 224 243 238 207 181 194 202 206 209 204 211 215 212 193 183 178 180 183 177 177 175 176 176 178 179 178 177 174 171 169 164 168 164 161 156 151 150 151 147 142 141 134 130 136 138 138 140 137 135 154 175 177
11 285 270 302 62 159 196 176 209 141 200 285 109 220 209 180 143 295 327 280 32 41 245 178 297 273 304 299 275 279 285 278 330 255 211 230 252 239 216 220 222 219 209 206 208 210 200 180 193 191 183 177 177 178 184 184 181 179 171 171 170 168 168 169 169 161 158 155 152 154 147 146 145 149 156 152 147 140 136 131 133 141 146 119 113 104
171 261 257 162 242 251 201 148 249 283 158 93 214 241 252 161 103 135 229 318 328 232 267 160 224 269 26 280 329 355 284 293 319 263 255 290 314 251 243 238 230 227 228 232 240 225 207 207 196 192 195 193 188 184 179 180 178 174 172 170 166 167 170 174 166 162 161 157 155 154 154 151 151 152 149 144 146 144 131 126 119 115 107 112 115 121
107 313 296 245 100 267 351 51 304 267 192 190 185 265 116 250 313 300 91 286 272 262 265 267 232 243 198 251 301 264 256 282 286 273 293 264 259 246 252 255 257 268 248 229 222 209 206 203 202 196 196 191 186 184 180 165 162 164 167 171 171 172 171 167 163 157 156 157 156 157 156 152 149 148 141 143 142 138 137 132 131 120 126 112 117 116
66 199 294 264 120 227 49 103 245 251 3 59 14 326 225 109 188 146 198 189 128 266 347 283 145 250 197 219 232 256 248 238 259 273 244 238 230 235 240 249 246 233 228 230 224 218 213 211 204 198 191 188 186 178 174 166 160 169 169 166 167 159 157 161 165 162 163 162 155 153 147 148 146 148 146 152 146 140 145 144 134 130 122 131 121 120
241 125 254 278 306 6 253 189 216 166 163 198 179 267 346 202 221 130 259 171 182 210 201 273 281 254 231 211 226 243 231 227 219 241 243 239 241 237 240 241 245 234 232 231 224 219 214 208 201 196 192 183 170 173 169 175 178 172 164 172 171 168 169 170 170 165 166 160 160 155 155 154 152 154 150 147 147 142 146 141 134 132 136 124 129 126
143 212 217 285 320 210 239 190 200 176 181 175 176 210 191 149 205 207 263 100 187 185 246 237 263 268 246 214 219 231 239 231 224 215 240 245 246 245 245 247 237 240 237 231 225 216 210 203 194 184 173 168 172 181 183 183 173 174 178 177 171 170 176 171 173 174 165 163 160 159 155 154 154 156 152 149 152 151 147 139 136 138 130 131 146 127
157 173 150 259 230 240 246 229 224 196 180 204 174 229 170 176 114 148 238 251 237 248 150 244 301 271 164 205 208 193 238 245 264 202 240 250 248 248 247 250 254 235 239 231 221 210 205 195 188 182 180 183 188 186 183 182 186 184 179 174 178 176 181 175 172 168 165 163 162 159 155 155 158 157 160 153 157 156 149 141 141 140 136 139 141 136
124 227 286 273 288 277 290 41 12 52 155 296 251 169 126 191 197 204 212 187 178 273 159 253 245 272 347 318 289 251 271 272 324 186 231 278 293 292 282 276 264 262 252 253 226 210 199 181 172 176 189 192 192 190 191 189 186 183 184 182 177 182 176 172 171 168 167 166 163 157 157 163 161 158 166 167 163 161 149 145 146 146 141 143 140 146
119 266 148 294 326 308 335 5 353 358 62 227 221 207 207 222 213 237 60 121 267 239 216 174 258 276 36 327 39 49 37 24 352 338 30 340 319 309 303 297 289 272 277 243 219 198 170 179 190 199 198 195 195 192 191 190 190 187 187 182 184 182 175 171 170 170 170 167 163 162 164 167 166 166 173 172 163 159 149 150 149 150 151 148 149 163
208 219 125 226 262 284 291 291 283 269 219 226 243 218 195 199 184 109 243 212 226 251 192 214 250 259 263 64 30 2 6 358 333 332 331 303 272 289 300 298 295 284 257 245 212 176 200 203 204 204 202 200 196 194 191 191 191 190 189 191 183 178 176 178 172 173 169 170 168 169 169 170 170 175 175 172 160 157 154 152 152 155 156 157 164 170
234 255 206 214 221 245 249 254 16 101 68 214 266 217 232 210 202 203 237 152 231 245 236 246 249 266 281 277 320 319 352 353 328 320 312 311 310 305 292 286 284 284 268 244 219 221 218 217 214 213 206 202 197 193 192 190 191 190 190 190 188 185 179 178 175 174 173 172 173 172 175 175 177 177 173 167 155 153 154 155 156 154 159 162 169 177
294 288 240 223 242 246 256 264 273 13 296 281 279 279 251 244 210 200 212 236 230 64 262 257 265 272 268 290 24 340 339 327 323 332 338 336 328 321 319 316 316 313 293 274 239 218 216 221 220 213 209 201 199 192 192 193 192 191 190 190 185 181 181 182 179 179 177 174 175 177 179 177 176 175 165 149 149 155 155 156 158 157 159 156 175 188
184 235 272 163 241 253 263 271 291 297 277 273 277 274 267 237 223 220 233 243 249 238 255 263 274 281 284 328 7 356 348 355 359 2 346 322 338 347 345 343 332 324 319 302 259 243 236 231 224 217 207 204 192 193 195 191 192 191 192 189 185 181 186 178 177 181 180 177 179 180 176 170 170 163 145 147 151 156 161 161 159 158 166 175 187 194
90 255 260 199 266 272 269 272 275 269 270 270 264 264 265 261 250 242 249 252 249 251 258 271 280 284 312 13 359 354 354 357 349 347 353 356 345 335 333 330 330 326 326 318 297 269 254 246 237 225 209 195 197 198 195 196 196 195 191 188 185 183 182 170 181 179 183 184 183 174 169 163 160 158 147 152 162 164 162 161 162 167 177 189 185 175
137 259 90 224 258 273 276 294 228 244 269 283 279 280 271 260 257 256 262 268 277 273 268 271 279 287 20 357 352 341 353 349 356 357 348 336 335 333 333 340 348 351 346 344 338 328 306 285 290 294 224 215 207 206 202 202 199 192 190 188 186 183 178 172 176 182 183 186 178 172 164 160 161 155 162 166 163 165 164 166 167 174 183 183 175 165
174 272 33 9 289 282 285 20 338 341 289 278 295 305 295 285 286 296 315 348 342 307 309 334 20 7 340 349 339 350 349 353 348 345 340 332 330 346 359 1 0 357 353 348 343 339 337 320 272 233 223 219 217 212 207 204 198 188 195 188 185 179 170 172 178 181 184 181 170 172 168 164 158 164 169 168 173 170 168 164 170 177 180 176 172 169
189 185 280 328 264 266 279 44 357 340 332 311 15 343 344 8 5 348 49 37 27 4 54 34 341 356 344 336 342 345 351 341 346 339 329 324 349 9 4 355 351 347 341 337 333 332 329 325 298 255 241 236 227 218 215 204 188 196 193 185 182 164 172 177 178 179 180 177 171 172 170 164 166 170 172 179 174 169 166 171 176 178 175 181 175 155
148 186 234 158 253 279 299 341 344 336 299 278 76 17 350 19 17 32 30 42 36 44 37 17 352 345 349 351 350 340 339 338 327 316 304 330 3 357 353 351 346 341 336 333 329 328 328 323 312 283 254 246 239 226 219 196 198 197 181 173 165 174 175 173 178 179 180 176 175 171 171 170 172 177 180 177 174 170 172 175 184 181 174 165 161 172
196 191 235 90 263 283 331 333 326 284 267 118 92 29 7 342 29 67 73 42 33 26 19 12 7 356 348 343 334 332 326 316 313 304 303 36 16 7 358 348 344 339 330 330 332 336 334 329 318 307 295 274 250 228 187 195 190 169 169 169 175 177 173 177 175 179 179 180 177 171 171 174 178 181 180 179 175 174 177 180 178 173 175 171 179 181
242 165 301 313 202 329 294 247 276 233 129 71 1 13 0 355 7 352 123 57 31 29 16 4 0 348 341 340 336 335 321 318 308 290 311 20 18 0 347 335 331 327 328 332 335 332 331 328 320 311 307 305 254 214 198 196 175 169 178 169 173 175 178 176 177 178 175 180 180 178 177 176 181 182 180 180 177 177 180 180 180 179 174 172 181 184
105 72 136 283 249 251 215 208 247 324 313 26 7 7 342 339 325 328 317 55 54 23 20 358 351 348 342 338 338 329 324 315 309 298 80 18 352 346 338 328 322 323 327 330 331 328 327 322 317 309 305 293 249 216 209 184 172 171 162 172 177 173 176 176 182 181 180 182 178 179 179 181 182 183 181 181 179 182 183 179 180 179 168 176 185 188
35 159 264 102 273 153 253 282 285 285 282 9 335 320 316 312 302 287 289 250 41 13 15 1 351 340 341 335 338 334 327 324 327 323 339 349 340 336 331 324 319 321 325 324 329 328 326 321 315 308 304 284 258 236 208 174 173 168 172 177 174 173 178 182 189 182 180 182 177 178 181 183 182 183 184 182 186 184 184 180 179 179 175 183 188 196
7 72 62 154 268 354 291 280 280 287 93 18 338 319 315 309 297 308 278 244 30 1 1 353 344 338 339 341 336 338 340 333 321 318 334 336 329 329 327 324 325 322 320 326 329 327 321 317 311 298 294 272 251 225 189 181 173 172 180 178 177 179 181 189 187 184 182 177 175 179 177 181 184 186 185 187 188 181 181 182 182 177 173 185 186 200
38 356 30 339 281 269 285 299 289 37 58 352 336 338 323 315 313 300 309 327 357 346 346 345 335 336 333 341 336 335 331 322 323 322 327 322 319 317 321 327 322 320 321 322 321 318 313 310 308 300 288 267 253 198 177 174 178 184 180 179 174 183 193 194 189 172 163 165 168 171 178 183 186 188 186 187 183 180 184 171 162 172 180 187 186 193
6 338 20 299 301 304 312 281 297 163 76 10 6 341 328 314 311 36 343 335 333 337 337 332 326 328 336 330 336 323 319 311 308 306 310 309 316 324 326 321 318 317 317 320 319 320 314 310 304 294 288 280 253 180 180 174 179 189 184 176 180 199 197 177 154 156 157 155 165 175 182 185 187 187 188 184 180 176 169 169 176 173 179 187 188 190
10 343 344 2 351 355 333 322 300 307 118 7 358 351 333 339 30 358 320 318 327 330 325 320 319 325 328 323 321 316 312 313 308 307 305 317 327 318 317 319 318 317 312 311 310 315 316 311 305 296 284 266 214 190 183 183 190 190 178 180 201 198 146 142 154 151 155 165 171 179 183 186 187 184 180 172 161 166 177 179 170 174 178 182 184 198
350 314 13 342 342 337 347 334 329 331 357 11 349 346 23 41 8 325 310 320 332 320 313 311 315 316 319 315 315 314 314 313 316 314 317 319 316 316 317 317 318 318 319 318 317 317 315 309 305 300 289 262 204 189 191 187 195 189 183 200 198 138 140 142 149 155 161 168 177 181 183 182 178 176 167 171 173 172 179 169 171 177 174 181 192 203
357 24 5 339 48 347 331 327 332 337 325 357 9 328 319 320 321 327 340 325 327 320 317 318 313 313 315 312 316 313 315 317 316 318 315 311 312 309 309 312 314 312 309 309 312 317 315 308 304 299 289 236 207 195 193 192 199 193 191 201 126 135 136 146 151 158 165 174 180 176 178 176 175 170 168 170 168 174 173 178 180 180 186 184 191 202
42 80 300 282 6 13 265 259 289 297 317 355 344 311 299 310 347 350 334 319 316 319 326 318 318 319 317 313 307 309 314 319 317 317 317 319 313 311 319 322 313 311 317 323 319 315 311 308 306 301 289 236 207 196 202 204 202 192 194 162 135 152 156 156 158 163 172 176 177 176 173 165 168 171 172 174 169 175 182 183 174 188 192 188 200 206
83 58 293 256 299 298 269 246 254 293 332 333 323 306 325 347 350 333 327 324 327 329 328 323 321 316 312 310 313 315 319 320 317 318 319 312 307 317 315 309 315 325 322 318 318 322 319 315 309 297 281 258 199 194 191 212 188 198 189 137 152 155 154 155 159 169 176 173 174 174 163 165 166 171 174 175 183 186 185 183 186 195 193 197 207 207
229 17 324 327 320 332 324 349 315 322 325 320 308 306 351 353 336 325 324 333 332 328 322 315 310 309 310 314 315 317 319 321 319 316 312 310 318 314 313 327 324 322 324 325 323 324 321 319 313 307 293 276 193 179 134 176 108 124 118 151 148 147 153 159 166 171 173 175 171 165 168 173 173 175 177 182 185 189 186 187 190 199 204 202 207 211
304 357 291 325 312 300 299 308 312 315 307 301 295 335 344 340 332 330 331 338 330 320 314 315 319 317 318 313 318 321 318 318 313 308 312 318 312 308 326 322 319 324 323 323 321 323 321 322 321 317 312 288 355 142 169 129 73 95 126 146 151 152 154 164 174 178 180 177 170 174 175 181 176 178 187 194 191 196 201 202 199 205 212 206 205 203
265 317 332 316 291 292 277 288 323 313 294 253 320 338 343 336 330 325 334 335 327 320 320 320 322 320 318 316 315 311 306 307 307 308 316 313 303 317 322 315 321 320 320 320 323 325 322 324 327 327 322 317 55 182 129 149 133 136 134 141 153 159 165 176 180 175 175 171 171 184 180 184 183 193 194 201 206 217 209 202 204 214 227 227 209 205
320 338 307 310 320 327 337 326 332 325 318 318 325 341 337 339 328 322 325 327 327 326 324 323 323 323 319 315 311 306 313 315 312 318 316 308 306 317 316 318 321 320 319 320 322 323 327 331 334 333 333 341 5 208 212 203 178 162 156 156 165 169 177 175 172 177 185 181 188 190 183 192 194 197 203 205 211 217 233 229 223 216 219 235 224 223
11 313 333 330 328 310 319 318 313 297 286 296 319 328 336 330 317 314 321 320 319 320 322 321 320 320 320 317 308 313 316 309 315 317 307 304 307 310 312 318 320 318 317 322 325 327 333 332 334 332 332 331 314 241 231 217 198 176 174 164 179 183 185 170 174 187 194 191 203 193 191 192 201 204 208 212 215 216 226 238 239 237 238 235 230 225